TimeEST,TemperatureF,Dew PointF,Humidity,Sea Level PressureIn,VisibilityMPH,Wind Direction,Wind SpeedMPH,Gust SpeedMPH,PrecipitationIn,Events,Conditions,WindDirDegrees,DateUTC
12:53 AM,69.1,64.9,87,30.04,10.0,Calm,Calm,-,N/A,,Clear,0,2012-02-25 05:53:00
1:53 AM,68.0,64.9,90,30.03,10.0,SSW,4.6,-,N/A,,Clear,210,2012-02-25 06:53:00
2:53 AM,68.0,64.9,90,30.02,10.0,Calm,Calm,-,N/A,,Clear,0,2012-02-25 07:53:00
3:53 AM,66.2,64.4,94,30.02,10.0,Calm,Calm,-,N/A,,Partly Cloudy,0,2012-02-25 08:53:00
4:20 AM,66.2,66.2,100,30.02,10.0,WSW,3.5,-,N/A,,Scattered Clouds,240,2012-02-25 09:20:00
4:35 AM,68.0,66.2,94,30.03,1.8,SW,4.6,-,N/A,,Mostly Cloudy,230,2012-02-25 09:35:00
4:53 AM,69.1,68.0,96,30.03,1.0,WSW,4.6,-,N/A,,Mostly Cloudy,240,2012-02-25 09:53:00
5:01 AM,69.8,69.8,100,30.04,0.8,WSW,5.8,-,N/A,,Mist,250,2012-02-25 10:01:00
5:44 AM,71.6,69.8,94,30.05,1.2,SW,3.5,-,N/A,,Mist,230,2012-02-25 10:44:00
5:53 AM,71.6,69.1,92,30.05,1.2,SW,4.6,-,N/A,,Mist,220,2012-02-25 10:53:00
6:33 AM,71.6,69.8,94,30.07,2.5,SW,5.8,-,N/A,,Mist,220,2012-02-25 11:33:00
6:46 AM,71.6,69.8,94,30.07,4.0,SW,5.8,-,N/A,,Overcast,230,2012-02-25 11:46:00
6:53 AM,70.0,70.0,100,30.08,4.0,WSW,6.9,-,N/A,,Overcast,240,2012-02-25 11:53:00
7:04 AM,69.8,69.8,100,30.08,1.5,WSW,4.6,-,N/A,,Overcast,240,2012-02-25 12:04:00
7:28 AM,69.8,69.8,100,30.09,2.5,WSW,4.6,-,N/A,,Overcast,240,2012-02-25 12:28:00
7:42 AM,69.8,69.8,100,30.10,3.0,SW,5.8,-,N/A,,Mostly Cloudy,220,2012-02-25 12:42:00
7:53 AM,71.1,70.0,96,30.10,3.0,SW,5.8,-,N/A,,Mostly Cloudy,230,2012-02-25 12:53:00
8:35 AM,71.6,71.6,100,30.12,6.0,SW,4.6,-,N/A,,Mostly Cloudy,230,2012-02-25 13:35:00
8:53 AM,73.9,71.1,91,30.12,7.0,WSW,5.8,-,N/A,,Mostly Cloudy,250,2012-02-25 13:53:00
9:21 AM,75.2,71.6,89,30.12,7.0,West,5.8,-,N/A,,Mostly Cloudy,270,2012-02-25 14:21:00
9:53 AM,77.0,71.1,82,30.13,10.0,NW,10.4,-,0.00,Rain,Light Rain,310,2012-02-25 14:53:00
10:12 AM,71.6,66.2,83,30.14,10.0,North,19.6,24.2,0.00,,Overcast,10,2012-02-25 15:12:00
10:28 AM,69.8,66.2,88,30.14,10.0,NNE,13.8,-,0.00,Rain,Light Rain,20,2012-02-25 15:28:00
10:53 AM,72.0,64.9,78,30.15,10.0,North,15.0,-,0.00,,Mostly Cloudy,10,2012-02-25 15:53:00
11:53 AM,75.9,63.0,64,30.14,10.0,NNE,16.1,-,N/A,,Mostly Cloudy,20,2012-02-25 16:53:00
12:53 PM,73.0,60.1,64,30.14,10.0,North,19.6,-,N/A,,Overcast,10,2012-02-25 17:53:00
1:53 PM,73.9,61.0,64,30.12,10.0,North,16.1,-,N/A,,Overcast,360,2012-02-25 18:53:00
2:53 PM,72.0,60.1,66,30.11,10.0,North,17.3,-,N/A,,Overcast,10,2012-02-25 19:53:00
3:53 PM,71.1,59.0,66,30.11,10.0,North,15.0,23.0,N/A,,Overcast,10,2012-02-25 20:53:00
4:53 PM,71.1,59.0,66,30.12,10.0,NNE,11.5,-,N/A,,Overcast,20,2012-02-25 21:53:00
5:53 PM,71.1,60.1,68,30.13,10.0,NNE,15.0,20.7,N/A,,Overcast,30,2012-02-25 22:53:00
6:53 PM,70.0,60.1,71,30.14,10.0,NNE,13.8,21.9,N/A,,Overcast,30,2012-02-25 23:53:00
7:53 PM,70.0,61.0,73,30.16,10.0,NE,13.8,20.7,N/A,,Overcast,40,2012-02-26 00:53:00
8:53 PM,71.1,61.0,70,30.19,10.0,NE,11.5,-,N/A,,Overcast,40,2012-02-26 01:53:00
9:53 PM,71.1,60.1,68,30.20,10.0,NE,13.8,-,N/A,,Overcast,50,2012-02-26 02:53:00
10:53 PM,71.1,60.1,68,30.19,10.0,NE,10.4,-,N/A,,Overcast,50,2012-02-26 03:53:00
11:53 PM,71.1,60.1,68,30.19,10.0,ENE,11.5,-,N/A,,Overcast,70,2012-02-26 04:53:00